#timestamp,LO_Frequency,Hit,StdDev 
1677657615.5,286047001.0,N
1677657635.3,286047000.5,N
1677657655.2,286047002.7,N
1677657675.9,286047002.8,Y
1677657695.7,286047001.2,P
1677657715.6,286046998.2,P
1677657735.4,286046998.1,N
1677657755.3,286046998.2,N
1677657775.1,286047001.1,N
1677657776.0,286047001.1,N
1677657795.8,286047001.1,N
1677657815.7,286047000.8,N
1677657835.5,286046998.2,N
1677657855.3,286046999.0,N
1677657875.2,286046998.1,N
1677657895.0,286047001.1,N
1677657895.9,286047001.1,N
1677657915.8,286047000.7,N
1677657935.6,286046998.2,N
1677657955.4,286046998.4,N
1677657975.3,286046998.9,N
1677657995.1,286046998.1,N
1677658015.9,286047000.7,N
1677658035.7,286046998.4,N
1677658055.5,286046998.5,N
1677658075.4,286047001.1,N
1677658095.2,286046998.6,N
1677658115.0,286046998.3,N
1677658115.9,286046998.3,N
1677658135.8,286046999.0,N
1677658155.6,286047001.2,N
1677658175.5,286047000.2,N
1677658195.3,286047002.4,N
1677658215.1,286047002.6,N
1677658235.9,286047000.2,N
1677658255.7,286047002.3,N
1677658275.5,286047002.2,N
1677658295.4,286047002.1,N
1677658315.2,286047002.8,N
1677658335.1,286047003.5,N
1677658336.0,286047003.5,N
1677658355.8,286047001.8,N
1677658375.6,286047002.2,N
1677658395.5,286047002.1,N
1677658415.3,286047001.4,N
1677658435.2,286047002.2,N
1677658455.9,286047002.8,N
1677658475.7,286047000.3,N
1677658495.6,286047002.5,N
1677658515.4,286047002.2,N
1677658535.2,286047002.4,N
1677658555.1,286047002.1,N
1677658556.0,286047002.1,N
1677658575.8,286047001.7,N
1677658595.7,286047002.6,N
1677658615.5,286047002.6,N
1677658635.3,286047001.6,N
1677658655.2,286047001.5,N
1677658675.0,286047003.8,Y
1677658675.9,286047003.8,P
1677658695.8,286047002.7,N
1677658715.6,286047002.5,P
1677658735.4,286047000.3,N
1677658755.3,286047000.2,N
1677658775.1,286047002.5,N
1677658776.0,286047002.5,N
1677658795.8,286047003.8,Y
1677658815.7,286047000.1,P
1677658835.5,286046999.9,N
1677658855.3,286047000.2,N
1677658875.2,286047002.7,Y
1677658895.0,286047000.3,P
1677658895.9,286047000.3,N
1677658915.8,286047000.5,P
1677658935.6,286047000.5,Y
1677658955.4,286047001.0,P
1677658975.3,286047000.8,N
1677658995.1,286047000.6,N
1677659015.9,286046998.5,Y
1677659035.7,286046999.4,P
1677659055.5,286046999.2,N
1677659075.4,286046999.3,N
1677659095.2,286046999.5,N
1677659115.0,286046997.1,Y
1677659116.0,286046997.1,P
1677659135.8,286046997.1,N
1677659155.6,286046999.1,N
1677659175.5,286046999.0,N
1677659195.3,286046999.2,N
1677659215.1,286046996.8,Y
1677659235.9,286047000.5,P
1677659255.7,286047001.0,N
1677659275.6,286046999.8,N
1677659325.4,286047002.8,E
1677659335.3,286047000.7,N
1677659355.2,286046999.6,P
1677659375.0,286046998.3,P
1677659375.9,286046998.3,N
1677659395.8,286046996.9,Y
1677659415.6,286046999.4,P
1677659435.4,286046998.5,P
1677659455.3,286047000.4,N
1677659475.1,286046998.8,N
1677659495.8,286046999.3,N
1677659515.7,286046998.6,N
1677659535.5,286046998.9,N
1677659555.4,286046999.4,N
1677659575.2,286046998.3,Y
1677659595.0,286047000.0,P
1677659595.9,286047000.0,N
1677659615.8,286047002.0,P
1677659635.6,286047002.3,N
1677659655.5,286047002.5,N
1677659675.3,286047002.7,N
1677659695.1,286047004.4,Y
1677659715.9,286047004.0,P
1677659735.7,286047001.6,N
1677659755.5,286047002.1,N
1677659775.4,286047002.6,N
1677659795.2,286047002.4,N
1677659815.1,286047002.7,Y
1677659816.0,286047002.7,P
1677659835.8,286047000.8,P
1677659855.6,286046998.8,N
1677659875.5,286046999.5,N
1677659895.3,286046998.8,N
1677659915.1,286046999.5,N
1677659935.9,286046999.5,N
1677659955.7,286046999.4,N
1677659975.6,286046998.8,N
1677659995.4,286046998.7,N
1677660015.2,286046998.7,N
1677660035.1,286046999.6,N
1677660036.0,286046999.6,N
1677660055.8,286046998.5,N
1677660075.6,286046998.4,N
1677660095.5,286046998.1,N
1677660115.3,286047000.8,N
1677660135.2,286046998.2,N
1677660155.9,286047001.2,N
1677660175.7,286047000.8,N
1677660195.6,286047000.8,N
1677660215.4,286047001.1,N
1677660235.3,286046998.3,N
1677660255.1,286047001.1,N
1677660256.0,286047001.1,N
1677660275.8,286047001.1,N
1677660295.7,286046998.1,N
1677660315.5,286046998.2,N
1677660335.3,286046998.4,N
1677660355.2,286046998.6,N
1677660375.0,286046998.6,N
1677660375.9,286046998.6,N
1677660395.8,286047000.5,N
1677660415.6,286046998.6,N
1677660435.4,286046997.8,N
1677660455.3,286046999.5,N
1677660475.1,286046996.8,N
1677660495.9,286046996.6,N
1677660515.7,286046997.3,N
1677660535.5,286046997.1,N
1677660555.4,286046999.6,N
1677660575.2,286046998.8,N
1677660595.0,286046998.2,N
1677660596.0,286046998.2,N
1677660615.8,286047001.0,N
1677660635.6,286046999.8,N
1677660655.5,286046999.8,N
1677660675.3,286047002.2,N
1677660695.1,286047002.5,N
1677660715.9,286047002.2,N
1677660735.7,286047002.7,N
1677660755.6,286047002.8,N
1677660775.4,286046999.9,N
1677660795.2,286047000.6,N
1677660815.1,286047000.7,N
1677660816.0,286047000.7,N
1677660835.8,286046999.9,N
1677660855.7,286047001.0,N
1677660875.5,286047001.5,N
1677660895.3,286047002.8,N
1677660915.2,286047001.1,N
1677660935.0,286047000.4,N
1677660935.9,286047000.4,N
1677660955.8,286047000.1,N
1677660975.6,286046999.9,N
1677660995.4,286047002.2,N
1677661015.3,286046999.8,N
1677661035.1,286046999.7,N
1677661055.9,286047000.9,N
1677661075.7,286047000.5,N
1677661095.6,286046999.7,N
1677661115.4,286047002.0,N
1677661135.2,286046999.8,N
1677661155.1,286047002.8,N
1677661156.0,286047002.8,N
1677661175.8,286047000.0,N
1677661195.6,286047002.8,N
